RH
25 26 24 22 17 18 20 20 18 12 12 10 6 5 3 2 4 9 12 12 11 14 12 15 30 36 32 28 48 64 75 74 45 44 51 96 87 73 95 85 66 91 69 32 30
24 25 24 19 18 21 22 22 14 13 11 9 7 4 2 3 7 8 14 21 21 21 17 19 26 40 38 31 51 70 58 49 49 57 81 96 78 73 90 65 61 82 81 53 51
24 22 19 18 20 22 23 20 14 13 12 10 6 2 3 5 10 8 12 21 22 22 30 25 31 39 38 33 52 63 55 56 67 61 91 83 80 93 95 96 71 68 95 63 65
29 22 24 22 21 24 23 17 14 14 14 8 4 2 5 7 16 10 20 16 17 20 24 30 40 37 30 26 43 57 63 71 100 71 88 80 98 92 86 86 98 81 81 90 69
28 26 30 26 23 25 23 18 15 16 13 6 3 3 5 9 14 26 26 28 24 17 22 24 28 35 29 37 47 29 32 70 82 99 71 88 84 83 87 92 96 86 73 96 79
30 30 29 24 24 26 23 18 17 16 9 4 3 3 8 15 18 17 18 21 26 25 20 24 24 26 27 32 45 49 38 36 79 98 94 88 92 98 92 95 94 81 67 86 96
29 29 30 26 26 28 24 20 17 13 7 3 3 4 12 20 18 16 14 15 20 23 24 27 23 24 24 32 30 32 31 39 46 69 91 97 97 97 98 97 95 80 75 91 94
28 34 31 26 30 30 23 19 16 12 5 2 3 9 16 20 17 13 10 11 13 16 21 24 29 25 24 28 44 37 38 32 33 59 86 100 77 89 98 98 98 86 66 88 84
32 30 27 31 33 28 22 18 15 10 4 2 6 18 21 17 12 7 6 7 9 9 14 22 22 32 30 26 44 59 38 25 62 67 72 87 77 95 94 81 89 87 65 82 69
29 29 30 35 34 26 22 18 14 6 3 2 11 24 20 15 9 6 7 8 9 8 13 17 20 25 37 30 28 45 50 45 45 72 65 81 79 90 98 97 98 86 84 72 68
32 32 36 39 31 25 21 17 13 6 2 4 18 26 21 12 8 14 20 18 17 17 14 16 18 20 35 35 28 36 65 58 65 100 78 57 95 85 98 96 97 97 96 56 72
34 37 40 37 29 24 20 17 12 4 2 8 24 24 20 10 18 34 41 50 46 54 29 26 20 20 31 37 33 30 55 83 100 100 98 75 81 99 96 98 97 95 97 77 63
38 42 43 37 27 22 19 16 8 2 3 13 22 26 17 12 33 56 62 63 69 62 58 32 32 28 50 44 36 33 35 70 84 100 96 99 86 87 82 96 97 98 89 97 66
44 48 43 36 25 22 19 14 4 2 5 18 25 27 14 21 48 59 63 67 61 72 85 92 29 31 98 55 41 33 35 69 100 100 95 88 78 84 79 92 95 97 91 72 83
52 51 44 32 28 22 19 11 4 3 9 18 29 29 15 34 48 60 50 67 71 70 74 70 83 27 36 40 48 40 34 48 100 100 97 93 73 69 77 88 92 88 93 95 97
55 50 38 32 27 21 17 8 3 4 11 27 36 32 13 33 67 63 65 80 88 93 91 87 62 49 23 83 95 54 100 68 67 100 100 89 70 61 59 56 93 100 98 100 97
55 46 36 30 24 20 13 6 2 3 18 28 38 36 15 27 68 71 100 100 75 75 92 100 93 38 26 30 80 51 100 100 54 46 78 100 100 61 49 57 82 97 92 91 97
52 44 36 27 24 18 10 4 2 4 16 50 47 35 16 14 46 81 100 100 93 80 90 99 100 99 45 22 32 48 93 68 50 46 60 80 96 63 59 60 75 96 84 96 100
52 42 34 29 22 15 8 3 2 5 16 33 48 36 17 10 34 70 94 98 100 93 85 93 100 100 61 30 22 51 49 75 62 35 52 90 97 98 76 61 62 96 95 84 81
48 40 32 27 19 11 6 3 2 7 24 49 50 37 19 10 21 54 68 88 100 100 98 95 96 100 100 34 21 27 60 64 96 60 40 54 77 84 75 60 68 77 89 92 82
45 38 30 24 17 10 4 2 2 10 26 47 52 38 20 10 10 36 58 69 97 100 100 89 91 100 100 78 31 26 38 91 97 100 99 58 86 82 81 80 68 68 88 96 92
45 34 26 22 13 8 3 2 5 14 39 57 52 35 19 10 9 22 46 54 77 91 100 96 82 100 100 100 32 30 53 98 100 100 100 100 86 86 74 58 54 76 88 81 96
40 32 26 20 10 5 2 2 6 21 49 61 48 30 16 10 7 12 38 48 57 68 89 94 98 97 100 90 66 33 98 100 100 100 100 100 90 80 68 74 70 83 90 59 84
36 28 24 14 8 3 2 4 12 30 44 57 41 24 17 8 5 12 23 52 51 55 66 60 88 100 100 100 100 41 72 98 100 98 99 100 80 73 56 60 70 72 99 82 71
30 25 22 13 6 2 2 6 12 32 57 49 30 22 13 6 7 8 14 49 53 55 61 68 79 78 96 100 88 88 51 92 100 98 96 76 99 100 99 81 66 71 92 81 69
27 22 15 9 3 1 2 8 13 47 51 38 23 16 8 5 7 14 18 41 73 64 62 57 55 57 99 83 73 74 52 66 77 100 99 54 73 100 100 100 95 70 94 73 72
24 17 12 6 2 2 4 10 26 56 42 27 20 11 6 7 9 15 25 41 85 67 68 50 68 98 97 98 100 100 95 100 72 90 88 58 60 96 100 100 100 100 79 76 67
Wind_Speed
52 55 58 61 64 71 78 83 86 90 93 95 91 91 72 54 36 31 33 33 27 25 30 32 38 41 46 43 43 44 53 51 55 54 47 48 56 56 45 53 58 54 53 56 50
54 58 60 59 67 75 81 85 86 91 94 94 96 85 63 46 34 30 31 26 21 23 29 34 39 46 50 48 43 48 49 53 49 48 51 48 54 55 53 55 55 54 57 55 48
57 59 60 64 70 79 83 84 88 92 96 98 96 76 55 43 38 36 33 32 28 25 28 33 43 49 51 50 45 45 44 46 50 50 49 50 52 55 47 42 50 50 50 59 49
57 60 64 67 71 80 85 85 90 93 97 97 89 67 49 41 39 33 28 33 36 31 30 31 40 46 48 47 48 43 42 50 33 52 53 59 37 44 55 51 46 46 53 61 50
57 62 66 69 74 81 85 86 92 94 98 95 78 58 45 37 31 31 28 28 25 36 37 34 35 42 46 46 48 40 42 46 51 39 53 55 46 65 45 48 51 47 50 51 56
60 65 67 71 77 81 84 90 92 97 96 86 69 53 42 34 34 30 30 28 31 29 32 39 41 41 42 47 50 46 46 48 48 42 51 49 55 46 41 55 52 46 53 48 61
62 64 68 73 79 82 86 92 94 97 95 81 63 46 42 34 34 32 27 27 30 31 33 35 44 46 44 44 45 44 47 53 56 56 58 57 56 33 33 42 51 48 50 48 43
61 64 69 74 80 83 90 92 96 98 92 76 56 45 39 37 35 33 28 27 28 35 35 35 38 45 48 47 46 46 50 55 56 58 61 60 63 56 55 35 48 49 49 50 55
62 66 70 76 80 83 89 94 97 97 83 68 48 42 39 39 34 30 25 23 25 29 37 38 38 41 45 49 49 50 53 53 54 56 53 54 49 45 52 40 46 50 49 49 53
64 69 73 79 82 86 88 93 96 91 79 61 47 38 40 41 35 26 21 19 20 24 32 38 40 41 43 48 53 47 44 48 50 52 57 51 52 39 43 45 39 48 51 50 52
66 70 76 80 82 87 90 93 93 89 79 50 42 35 36 36 31 22 16 14 14 16 24 34 38 41 41 45 44 47 44 44 47 48 53 55 54 45 48 47 40 40 54 48 52
67 73 77 80 85 88 92 96 98 91 66 46 35 36 36 32 22 15 14 11 9 9 15 29 38 42 41 45 47 46 45 44 40 41 50 56 58 53 50 48 55 42 45 49 47
69 73 77 82 85 89 94 96 96 81 61 46 33 35 34 26 16 12 13 13 11 8 10 18 29 38 41 46 47 44 44 41 38 39 41 51 56 57 59 51 46 48 49 42 54
70 74 77 83 85 91 93 95 91 75 57 33 33 31 30 19 12 14 15 15 12 8 9 9 23 39 48 47 47 45 43 39 28 35 40 43 54 57 57 52 48 50 48 44 53
71 74 79 82 86 91 94 94 91 72 51 39 29 29 26 11 10 12 12 14 12 8 7 11 12 29 48 46 48 43 41 43 47 30 44 38 49 51 57 61 49 50 45 48 44
72 75 78 83 89 91 93 95 86 63 41 29 27 28 26 9 8 7 10 12 11 11 8 12 14 18 37 50 49 46 37 46 48 43 32 34 44 51 58 63 52 45 60 61 30
72 76 78 83 87 90 94 94 84 59 39 27 23 27 25 10 6 5 12 13 13 10 15 13 11 11 28 52 53 55 41 41 42 48 49 33 27 43 53 53 55 45 40 56 36
72 75 79 82 88 91 95 92 78 56 31 25 24 26 25 14 6 3 3 8 15 12 14 10 8 7 17 37 54 55 53 44 41 44 40 46 22 31 45 49 54 43 37 53 61
72 74 79 84 88 92 94 89 74 47 27 20 24 25 25 16 11 10 6 7 12 9 11 12 9 8 6 26 46 55 53 46 38 41 42 45 21 28 44 45 45 51 39 46 54
71 75 80 84 88 91 92 85 64 38 23 22 22 25 24 18 11 14 10 7 1 6 10 12 8 5 11 16 38 48 47 44 28 34 41 44 44 33 29 44 36 49 40 34 53
69 75 80 84 88 91 88 82 56 31 21 20 24 26 25 18 14 15 14 9 5 5 7 11 7 5 2 2 32 48 51 44 32 22 33 47 39 40 39 35 33 36 49 35 42
70 74 80 86 88 91 89 77 47 25 21 21 24 27 27 21 15 14 18 12 9 10 8 12 6 5 3 2 29 47 53 52 25 16 30 35 38 34 36 34 32 35 39 43 39
71 74 80 85 87 88 85 64 36 22 21 23 26 27 27 26 14 14 20 18 11 9 9 6 4 2 5 2 9 50 65 61 40 21 27 26 27 31 36 30 34 34 36 43 43
70 75 81 84 87 86 79 50 27 21 21 23 28 29 27 25 21 13 17 20 15 11 9 7 7 4 6 7 10 25 59 57 42 33 25 24 27 28 33 33 32 37 34 40 47
69 75 81 85 85 82 66 38 22 20 22 25 29 32 30 20 21 17 13 20 19 12 9 8 7 9 11 8 17 10 34 56 51 39 31 34 23 26 29 31 35 39 36 35 44
71 76 81 84 83 76 53 30 20 22 23 28 30 33 31 24 18 15 10 19 19 13 9 10 10 10 10 10 13 13 30 40 52 45 40 36 36 23 28 31 29 39 37 35 35
70 76 82 82 78 67 40 23 18 21 28 30 32 31 31 26 17 10 11 16 15 12 10 12 9 7 9 7 14 17 32 30 51 44 47 46 42 34 14 31 34 39 35 37 38
Wind_Direction
328 326 325 325 327 328 330 330 332 335 334 334 337 337 330 322 309 282 276 275 274 255 242 233 223 218 213 214 217 223 223 223 221 220 215 221 223 225 230 230 233 215 216 217 209
328 327 326 326 327 330 331 330 333 335 334 335 337 335 327 317 304 285 276 271 261 250 238 226 221 216 212 207 214 221 220 222 221 217 218 223 226 226 228 231 230 227 213 217 207
327 328 326 328 329 331 331 332 333 334 334 337 338 332 323 314 300 290 268 255 248 245 239 225 221 217 212 206 210 217 220 219 220 215 214 219 224 225 225 233 229 228 223 214 208
327 327 326 327 328 331 332 334 334 334 336 339 337 330 321 314 302 297 283 262 248 243 241 232 222 222 215 209 208 215 216 220 217 213 213 211 223 227 226 226 230 223 222 212 207
326 327 327 327 329 331 333 333 334 335 337 340 335 328 320 313 303 294 287 275 259 244 238 229 228 223 216 214 211 209 219 217 215 211 215 213 219 222 221 224 226 217 221 222 206
327 326 328 328 329 331 332 334 333 336 339 340 333 327 320 312 304 294 282 268 261 250 236 229 225 224 218 213 211 210 215 216 216 209 211 216 225 212 218 227 225 222 220 219 212
327 327 328 329 329 332 334 334 335 339 342 338 332 326 321 314 311 303 288 269 250 246 241 228 225 221 215 215 213 210 213 215 214 209 210 216 210 214 205 212 214 217 218 218 226
328 327 327 328 330 333 334 336 337 342 341 337 332 327 322 318 313 304 291 271 252 241 237 231 225 219 216 215 217 216 215 218 209 215 215 214 214 219 218 211 212 217 218 219 218
327 326 327 329 332 334 336 337 339 343 340 336 330 325 324 323 320 310 297 276 252 242 230 227 226 221 211 212 219 218 220 216 217 218 214 218 204 221 225 233 230 217 217 215 222
327 325 326 330 333 334 336 337 341 343 339 336 330 328 330 325 322 319 306 284 261 237 228 221 223 222 213 210 214 217 220 220 217 216 217 213 203 212 208 209 209 223 218 213 220
325 326 329 331 332 335 336 337 340 343 342 336 329 330 330 328 325 327 320 305 275 250 229 219 221 219 215 212 210 213 217 218 219 217 220 210 209 207 203 212 208 208 214 215 219
326 328 331 332 333 337 338 340 342 344 342 335 332 331 333 332 332 343 349 347 324 283 243 223 217 213 211 211 211 214 214 213 217 218 221 219 218 219 222 205 212 197 204 212 214
327 330 331 331 336 339 340 341 344 345 341 336 331 332 336 334 341 350 348 337 330 328 272 238 220 211 207 209 211 210 215 215 216 214 219 222 219 219 220 204 208 206 193 195 209
329 331 330 333 337 340 341 341 346 344 339 335 336 337 339 333 344 329 328 328 310 306 301 262 224 211 204 206 209 206 206 208 189 213 217 221 219 218 217 207 207 205 194 214 215
330 331 332 335 339 341 340 342 345 344 337 335 338 336 340 324 334 329 5 26 16 337 309 283 246 218 213 208 209 200 203 204 198 197 217 220 222 214 218 218 211 208 207 209 206
330 332 334 337 340 341 341 342 346 341 338 332 333 340 335 312 333 345 10 0 357 356 334 320 278 232 212 203 207 195 197 207 208 220 207 210 227 223 218 211 220 215 215 210 221
331 333 335 339 341 341 342 343 346 341 336 329 330 335 334 309 310 336 9 346 337 348 346 348 337 243 212 209 206 198 196 199 206 212 208 212 220 225 220 221 216 215 212 206 212
332 334 338 340 342 343 343 344 345 341 338 329 331 335 335 324 255 260 316 343 342 333 347 351 15 345 209 210 209 204 203 208 209 213 208 215 234 228 225 225 219 207 211 212 220
332 335 339 340 343 342 343 345 345 340 337 331 328 334 333 327 245 252 288 336 341 347 349 6 11 338 276 207 207 207 204 207 213 214 213 205 201 205 222 227 220 219 207 209 211
333 336 338 342 343 343 342 344 344 339 336 333 329 333 334 325 273 238 251 292 332 19 357 346 3 28 358 213 201 203 201 197 202 213 222 220 223 231 224 227 228 223 208 207 210
335 337 340 341 342 341 342 344 343 339 334 332 329 333 333 331 301 241 240 268 295 271 346 328 346 10 338 250 200 196 192 178 177 153 202 219 220 221 219 217 218 218 222 210 208
334 340 342 340 342 341 341 345 343 340 334 332 331 335 331 333 297 256 239 249 269 251 266 337 327 95 68 8 199 188 183 185 166 128 160 188 200 211 215 218 217 207 218 219 209
334 340 340 341 342 342 342 345 343 341 336 334 333 333 331 328 309 265 234 238 243 265 261 340 347 299 29 165 211 196 191 193 191 163 152 181 197 211 209 211 207 209 214 218 218
337 341 340 341 342 341 342 343 343 340 336 335 333 330 334 321 319 266 238 231 230 249 251 281 299 293 316 244 211 214 208 192 194 186 176 169 190 203 213 212 208 206 202 208 211
340 341 339 341 341 340 342 343 344 340 338 337 332 330 333 328 306 289 247 224 225 238 247 247 275 284 297 249 209 228 212 212 203 194 199 201 183 180 198 190 208 207 208 205 206
340 341 340 341 341 340 344 342 342 342 339 337 334 331 333 332 317 274 257 213 221 228 239 248 267 274 299 241 208 232 208 211 218 208 213 208 210 176 181 187 198 205 211 213 203
341 341 341 342 340 341 346 344 343 345 339 338 336 335 333 331 320 277 240 212 209 213 238 257 252 288 295 209 197 197 190 197 213 212 216 214 214 214 204 188 193 195 206 209 208